Location: Newark
(48.5178°N, 4.2361°E)
Time: 13:34:44
(UTC+00:00)

X-37B - Visible Passes

Search period start: 08 March 2021 00:00
Search period end: 18 March 2021 00:00
Orbit: 383 x 391 km, 45.0° (Epoch: 27 February)

Date Brightness Start Highest point End Pass type
(mag) Time Alt. Az. Time Alt. Az. Time Alt. Az.
11 Mar 3.0 19:17:35 10° S 19:18:22 13° S 19:18:22 13° S visible
12 Mar 3.1 19:54:33 10° SW 19:55:23 16° SW 19:55:23 16° SW visible
13 Mar 2.1 18:56:39 10° SSW 18:59:12 22° SSE 18:59:58 20° SE visible
14 Mar 1.6 19:34:10 10° WSW 19:36:45 35° S 19:36:45 35° S visible
15 Mar 1.8 18:36:04 10° SW 18:38:55 30° SSE 18:41:10 14° ESE visible
15 Mar 2.9 20:12:10 10° WSW 20:13:28 21° WSW 20:13:28 21° WSW visible
16 Mar 1.2 19:13:53 10° WSW 19:16:57 43° S 19:17:49 34° SE visible
17 Mar 1.7 19:51:59 10° W 19:54:25 36° SW 19:54:25 36° SW visible
